Theta_e
304 304 304 304 305 308 310 311 314 316 317 315 320 323 325 326 327 326 324 325 326 325 323 319 325 328 325 325 325 327 333 334 333 334 333 329 330 330 330 330 328 328 327 329 335
303 304 303 304 306 307 308 310 312 315 317 316 324 324 324 324 324 324 325 325 326 322 322 320 321 327 326 325 326 330 334 332 332 332 332 330 330 330 330 329 331 332 331 333 335
302 304 305 302 304 305 306 308 310 313 317 314 323 323 323 324 324 323 324 324 324 324 323 319 320 326 326 325 325 327 333 329 329 330 331 330 330 330 330 331 329 330 329 335 336
303 304 304 304 300 301 304 306 309 312 316 316 313 321 322 321 325 322 323 324 324 324 322 320 322 327 327 327 324 328 325 325 325 325 330 330 331 330 331 330 330 328 329 334 335
302 303 304 304 300 301 304 304 306 309 315 315 314 321 322 322 322 320 321 323 322 324 322 321 323 326 327 326 325 327 325 324 323 324 329 330 330 330 331 328 329 330 330 331 333
300 303 303 304 301 300 304 304 305 309 314 315 314 316 320 321 321 320 321 320 320 322 322 322 322 324 326 325 326 324 325 325 324 325 326 329 329 329 331 328 330 332 330 330 330
301 301 303 304 300 301 304 306 306 305 312 315 313 315 316 319 320 320 320 322 322 322 322 319 321 324 324 325 323 323 326 325 325 325 326 328 328 329 329 329 330 331 331 330 330
300 301 303 303 299 302 303 307 309 308 311 316 313 315 316 316 315 318 320 321 322 321 321 321 324 324 324 323 324 325 325 328 326 325 324 326 333 330 325 328 329 330 331 331 331
300 300 302 302 298 301 303 307 308 308 312 316 314 315 315 311 314 316 321 320 321 319 322 319 325 325 324 326 327 326 327 327 324 323 324 326 333 325 323 325 328 329 330 331 331
301 300 301 302 298 299 302 304 306 309 313 315 315 313 311 311 312 315 317 320 322 320 321 322 323 322 323 327 330 328 328 326 325 322 323 325 328 323 322 323 325 327 326 326 326
302 299 301 301 299 299 300 302 306 308 312 314 314 314 313 312 310 312 316 319 320 321 322 323 324 323 323 323 323 326 325 326 325 320 322 323 324 324 324 322 323 323 323 323 323
302 299 301 301 299 299 299 305 307 309 313 313 313 313 312 312 313 312 318 319 319 321 321 322 325 323 322 322 321 321 322 323 322 320 320 323 322 322 321 321 320 321 321 321 321
302 300 301 301 300 300 303 305 306 309 307 312 313 313 312 313 313 314 318 317 320 320 321 321 320 319 321 323 323 322 322 322 321 320 320 320 320 321 320 319 319 319 319 319 319
302 300 301 302 301 303 303 305 305 306 309 312 313 313 313 313 315 316 317 316 318 320 319 319 316 317 318 321 321 323 321 321 321 322 323 320 323 322 321 318 316 316 316 317 316
302 301 302 302 303 301 303 303 304 305 316 310 312 311 313 314 315 316 316 315 317 318 317 318 318 317 318 319 320 321 320 322 322 322 321 322 322 321 321 320 317 316 314 313 314
302 301 302 302 300 299 298 303 304 309 313 309 310 312 312 314 315 315 314 314 314 317 315 315 314 317 317 317 319 318 319 319 319 320 327 322 320 320 319 316 314 313 313 313 313
302 302 303 302 303 297 303 304 307 307 306 311 310 309 312 315 316 315 314 316 316 316 316 315 316 314 317 319 317 317 317 320 320 320 316 315 318 318 314 312 312 314 313 313 312
301 303 303 302 299 299 303 306 309 305 309 307 311 307 312 315 315 315 315 317 315 315 315 316 316 316 316 316 317 317 314 317 316 317 314 313 313 313 314 314 313 312 313 312 312
303 303 302 301 300 303 304 305 307 306 306 309 312 311 311 311 315 315 315 315 315 315 316 315 316 314 316 314 316 318 318 314 314 312 314 315 315 315 314 314 313 313 311 312 312
302 301 301 300 301 303 303 305 305 302 303 307 313 310 314 312 314 315 316 313 315 312 313 314 315 314 313 314 315 317 315 316 317 317 316 314 315 315 315 314 314 312 312 313 312
302 300 300 300 301 302 304 301 302 302 303 308 310 311 312 313 314 315 313 311 313 314 313 313 314 314 314 315 315 316 317 316 316 316 315 314 314 313 313 313 313 313 313 313 312
300 302 300 301 302 298 301 298 299 303 303 306 308 308 310 311 312 314 314 312 309 313 314 313 314 315 315 312 312 314 315 316 320 319 317 317 315 310 311 312 312 313 312 312 312
300 300 300 298 303 301 297 299 300 303 304 306 307 307 306 307 312 310 310 307 310 312 314 312 315 317 318 314 312 315 314 315 316 316 320 317 314 310 309 309 309 309 310 310 310
300 302 298 297 296 302 301 300 301 300 302 304 305 306 307 307 307 310 309 307 308 309 309 311 313 313 314 313 313 314 314 314 316 318 316 317 314 312 310 311 312 311 311 312 312
300 299 297 304 303 301 301 301 302 302 302 302 305 306 306 307 306 307 307 307 307 307 308 310 312 311 310 310 311 312 313 313 315 315 317 315 315 313 313 313 312 312 312 312 311
299 299 296 295 298 300 300 301 302 300 302 302 305 304 302 304 303 305 306 306 308 307 309 308 310 309 309 309 310 311 311 312 313 313 313 313 314 313 312 312 312 312 312 311 311
299 298 301 297 299 301 302 300 300 300 299 300 301 303 302 301 301 300 301 302 305 307 307 308 309 309 310 309 309 309 309 309 309 311 312 313 313 312 313 312 312 312 312 311 310
Wind_Speed
13 11 14 17 19 13 11 9 13 14 11 11 12 14 11 19 22 29 25 23 23 11 4 12 8 10 7 3 2 3 6 10 12 13 10 17 14 9 3 8 5 5 1 9 19
12 13 13 18 18 18 13 14 11 15 11 10 9 16 14 17 19 22 24 20 20 10 4 6 12 7 10 5 3 6 10 15 8 8 12 20 16 14 9 10 7 6 5 15 19
12 12 13 14 18 17 18 18 12 15 13 13 14 12 11 10 11 11 23 20 16 14 8 4 13 13 6 6 2 3 8 3 3 3 10 21 14 14 11 10 9 12 14 18 19
12 12 14 14 15 19 18 19 19 13 15 15 15 14 17 14 5 9 14 25 15 9 9 5 14 9 4 5 1 6 2 1 3 2 12 18 15 12 12 8 6 9 17 19 18
12 13 14 16 13 14 16 21 22 17 17 16 17 17 20 16 12 2 9 12 6 7 8 8 11 5 6 2 4 5 3 3 3 5 9 13 14 13 12 5 8 10 16 18 17
14 14 16 16 15 15 13 17 21 24 17 18 18 17 11 11 21 15 15 11 11 11 13 8 6 5 3 2 4 4 2 4 4 7 7 10 8 5 14 8 9 12 14 16 16
16 15 15 14 15 15 15 15 19 29 19 19 20 19 13 9 13 22 17 20 19 16 10 10 7 5 5 4 3 3 4 5 6 6 4 8 7 11 8 10 8 10 13 15 15
18 15 15 14 14 14 16 13 15 22 19 19 20 18 6 15 12 18 20 20 21 16 14 9 9 9 2 2 2 1 2 8 7 5 3 5 14 13 5 10 13 10 12 13 14
19 17 15 14 12 12 16 14 14 20 18 19 22 15 6 10 19 18 17 17 17 18 22 8 5 3 11 5 4 3 8 8 6 3 2 6 8 7 4 4 9 11 10 10 11
21 19 16 15 12 12 15 16 12 19 17 19 16 10 10 11 23 15 21 16 12 13 12 11 4 4 7 12 8 10 8 7 7 3 2 5 7 8 5 3 7 8 8 8 9
24 21 17 15 12 12 10 14 9 9 16 6 13 9 13 11 20 17 21 18 13 12 8 13 6 12 13 12 3 12 4 7 4 5 2 5 10 10 5 4 7 8 8 9 13
25 22 18 14 11 11 10 16 11 3 7 16 10 7 13 15 10 21 18 15 15 11 9 6 13 9 6 9 7 10 8 8 2 4 3 6 11 11 9 10 13 14 14 16 17
26 23 17 14 12 12 12 18 17 7 3 11 16 11 13 13 13 25 22 17 16 16 16 11 3 9 8 9 11 11 13 12 7 1 2 6 16 18 12 11 15 17 18 20 18
26 22 18 16 10 9 13 16 24 10 3 5 9 7 12 11 8 18 22 13 11 19 14 7 7 9 9 13 11 14 12 8 5 3 5 2 6 11 9 6 7 11 14 12 10
25 22 19 15 6 6 3 15 22 10 6 9 9 10 15 14 23 14 15 5 14 12 10 7 8 10 11 13 10 2 4 6 8 4 8 10 6 12 11 8 11 17 5 4 3
25 22 19 16 4 6 6 8 12 4 4 1 4 7 7 11 8 19 11 7 8 10 5 7 1 5 4 4 10 11 10 7 2 4 6 14 11 10 10 10 5 2 5 2 1
24 20 15 12 1 2 10 8 2 2 4 4 3 5 10 10 11 19 19 14 10 10 12 8 5 2 6 12 6 12 12 3 3 4 6 2 11 15 5 6 3 8 1 2 2
23 19 15 8 4 9 8 0 3 3 4 2 6 10 5 9 8 13 16 16 7 7 13 12 6 10 8 10 8 14 11 4 6 6 5 4 7 3 7 8 6 5 4 2 2
22 18 12 6 9 9 4 3 3 3 5 5 8 3 3 3 4 10 14 15 7 6 5 11 4 9 10 2 9 11 11 2 1 2 2 6 8 5 6 9 7 5 4 6 8
24 13 8 6 5 4 2 2 1 3 5 2 3 5 0 5 4 6 9 2 9 4 2 2 6 5 5 3 1 4 10 4 2 3 6 7 8 7 9 12 10 7 8 8 8
16 6 7 5 3 2 3 1 3 4 7 6 5 3 3 4 3 4 5 4 3 8 4 3 2 5 8 8 12 5 8 4 4 3 4 4 5 2 8 7 9 12 9 9 8
8 3 6 4 1 2 1 1 5 7 6 3 4 8 4 3 4 3 4 5 1 7 5 3 4 5 5 3 4 12 9 11 3 4 3 3 6 2 4 4 10 11 4 4 4
6 5 4 3 0 2 1 1 4 4 7 8 6 6 5 4 3 4 6 6 4 5 7 5 3 5 5 0 1 6 11 11 10 1 6 5 2 3 4 6 4 0 2 4 8
5 2 1 4 2 3 4 2 3 2 4 5 4 4 4 8 8 3 4 6 6 7 8 1 2 2 2 4 2 8 10 13 13 5 5 14 11 3 3 3 4 6 9 15 17
3 1 1 1 1 2 2 2 3 3 2 1 2 5 3 3 4 3 5 5 6 4 4 3 3 3 4 4 3 3 6 13 18 15 12 9 12 12 11 11 18 21 23 20 18
2 4 3 2 0 1 2 2 5 2 1 1 4 5 6 5 4 5 7 3 2 3 3 1 3 2 2 2 3 4 10 12 13 12 20 20 26 17 24 23 22 25 18 17 17
3 6 2 2 1 1 3 2 1 4 4 7 5 6 10 8 11 11 13 10 7 6 3 3 4 2 2 1 3 6 12 14 13 15 16 18 19 16 15 18 19 17 15 13 11
Wind_Direction
262 270 256 243 244 256 259 273 254 251 246 246 230 244 239 215 210 202 213 227 227 239 234 324 316 287 250 212 220 212 230 215 206 198 143 160 169 171 129 138 166 165 69 124 161
263 257 261 251 243 250 251 261 265 244 238 207 174 217 227 219 202 207 210 219 217 217 251 11 316 270 215 195 200 232 219 225 198 209 154 173 179 162 168 158 165 152 120 147 154
272 253 262 263 248 251 251 247 263 246 228 211 192 195 171 205 207 228 217 203 192 223 260 296 306 271 204 177 157 171 228 66 105 121 185 172 181 170 188 182 177 172 154 158 164
273 262 256 265 268 250 248 246 244 247 229 219 224 218 203 192 216 195 194 201 190 224 255 307 270 238 202 150 42 176 75 13 129 233 176 171 165 177 190 137 138 157 163 166 176
268 260 261 265 277 261 254 239 241 252 234 217 207 207 197 193 213 194 179 170 216 236 254 279 252 254 136 114 117 112 94 97 112 140 184 178 176 174 190 136 145 151 163 174 181
254 259 259 254 268 268 253 242 234 240 242 217 205 205 205 207 221 226 211 203 230 222 247 248 330 254 93 54 29 29 65 110 115 138 146 181 170 170 192 154 152 167 177 184 190
247 252 253 247 270 272 242 239 235 237 242 215 206 202 231 203 219 205 209 196 200 202 232 235 220 230 163 108 16 22 183 149 146 138 128 190 187 209 153 182 165 184 190 193 200
243 242 244 248 264 262 238 235 229 227 236 208 205 198 221 213 204 186 181 199 212 198 217 208 189 198 149 127 38 91 264 173 137 161 97 204 199 201 147 192 202 196 196 198 205
236 234 236 243 254 251 230 232 228 227 226 207 194 193 215 211 203 190 183 188 196 204 200 197 184 183 138 133 14 273 175 208 135 57 97 213 221 98 161 197 204 210 213 213 217
230 225 228 233 245 236 230 232 239 225 218 209 182 179 221 210 196 191 182 183 174 168 169 172 226 199 188 182 184 183 191 222 209 85 164 181 242 107 96 228 223 218 216 232 241
220 218 221 225 236 230 231 236 241 231 238 228 190 173 162 169 190 185 182 175 170 160 177 187 201 206 186 189 243 195 202 255 228 38 280 220 260 257 189 281 249 244 244 252 260
212 211 213 215 230 228 224 213 211 221 263 216 208 169 159 156 150 182 177 175 180 177 153 164 208 222 250 204 169 163 200 237 239 329 303 241 259 266 256 250 254 260 260 260 264
202 202 205 206 221 236 227 218 213 232 260 200 181 173 166 160 170 174 174 197 199 185 185 187 138 134 152 183 206 220 224 209 221 168 242 300 266 259 244 249 252 253 255 259 265
194 193 196 201 220 232 230 221 211 330 204 165 183 172 165 155 147 169 172 183 196 196 185 227 131 182 181 207 197 220 213 259 197 228 244 275 269 249 225 204 215 243 246 254 261
180 185 193 193 226 220 227 225 218 300 213 141 152 162 166 193 143 172 170 182 186 177 165 167 163 166 199 208 184 216 122 210 223 243 288 230 262 250 254 242 255 249 240 228 223
171 180 186 194 240 271 217 164 195 241 208 233 144 159 159 172 148 146 156 141 137 151 177 108 27 164 157 137 179 127 121 112 140 220 251 247 242 254 227 213 246 122 135 195 190
167 176 176 180 288 221 150 132 146 283 358 163 161 147 170 157 137 154 163 157 160 152 167 132 131 119 163 121 160 176 170 136 200 202 244 345 226 243 299 248 204 179 243 150 32
167 167 166 179 158 158 167 112 209 138 287 323 137 126 176 144 140 156 163 164 169 215 157 172 181 174 179 189 177 190 183 181 208 202 222 111 229 244 238 257 149 203 247 240 167
159 153 157 165 154 157 179 236 38 343 318 333 128 166 127 71 146 142 171 177 147 182 150 171 117 134 168 80 162 184 218 53 351 14 313 206 225 257 232 247 205 206 184 156 153
154 142 127 122 146 118 27 19 349 303 317 312 28 28 58 116 97 106 159 214 157 132 239 181 122 204 137 139 133 208 166 175 216 218 244 254 263 259 204 228 187 178 171 161 163
139 89 147 148 100 22 128 332 294 307 357 13 20 64 39 94 63 105 102 61 58 177 59 128 146 133 151 210 183 168 178 221 181 218 254 270 264 100 278 215 213 161 155 164 178
107 84 164 155 41 16 84 129 293 6 21 354 56 47 31 65 77 98 98 83 118 150 136 53 86 135 146 65 353 218 210 199 206 179 250 321 255 4 16 210 180 143 99 172 194
78 84 66 351 230 108 105 332 13 356 19 12 45 51 48 45 84 59 112 54 55 126 149 149 152 128 139 270 207 210 209 227 218 88 203 206 183 16 120 120 127 298 233 220 244
100 116 250 14 74 128 161 117 109 352 36 8 23 17 69 30 19 72 68 45 30 83 66 127 159 20 202 74 206 202 210 214 229 217 239 232 246 157 113 152 281 234 250 278 293
82 128 169 154 124 92 14 98 124 99 80 325 118 103 125 112 101 80 108 118 57 30 61 69 106 82 55 39 30 336 257 225 228 237 239 259 259 265 281 291 290 295 294 298 292
110 140 107 51 11 129 45 148 116 87 313 325 112 94 53 100 56 134 128 117 115 94 83 342 119 100 353 178 172 271 256 245 253 267 263 272 269 272 270 267 269 271 273 275 283
72 130 102 17 33 330 6 40 98 130 72 50 72 88 82 69 67 68 69 66 93 139 117 152 133 148 126 16 302 275 240 238 245 240 240 255 264 263 258 257 263 264 261 273 282